Weather History for KGZH - February, 2014

Change the Weather History Date:

Sunday, February 2, 2014

  Actual Average (KPRN) Record (KPRN)
Temperature  
Mean Temperature 60 °F -  
Max Temperature 73 °F 61 °F 80 °F (1950)
Min Temperature 48 °F 41 °F 12 °F (1951)
Degree Days  
Heating Degree Days 4    
Growing Degree Days 10 (Base 50)    
Moisture  
Dew Point 56 °F    
Average Humidity 82    
Maximum Humidity 97    
Minimum Humidity 57    
Precipitation  
Precipitation 0.00 in - - ()
Sea Level Pressure  
Sea Level Pressure 30.05 in    
Wind  
Wind Speed 7 mph (SSE)    
Max Wind Speed 17 mph    
Max Gust Speed 25 mph    
Visibility 7 miles    
Events Fog    
Averages and records for this station are not official NWS values.
T = Trace of Precipitation, MM = Missing Value Source: NWS Daily Summary

Daily Weather History Graph

Daily Weather History Graph

Search for Another Location

Airport or City:

Trip Planner

Search our weather history database for the weather conditions in past years. The results will help you decide how hot, cold, wet, or windy it might be!

Date:

Astronomy

Feb. 02, 2014 Rise Set
Actual Time 6:40 AM CST 5:24 PM CST
Civil Twilight 6:14 AM CST 5:49 PM CST
Nautical Twilight 5:45 AM CST 6:18 PM CST
Astronomical Twilight 5:17 AM CST 6:47 PM CST
Moon 8:21 AM CST (2/2) 8:50 PM CST (2/2)
Length of Visible Light 11h 34m
Length of Day
10h 43m
Waxing Crescent, 11% of the Moon is Illuminated
Feb 2
Waxing Crescent
Feb 6
First Quarter
Feb 14
Full
Feb 22
Last Quarter
Mar 1
New

Hourly Weather History & Observations

Time (CST) Temp. Dew Point Humidity Pressure Visibility Wind Dir Wind Speed Gust Speed Precip Events Conditions
12:53 AM 48.0 °F 46.9 °F 96% 30.11 in 0.2 mi Calm Calm - N/A Fog Fog
1:53 AM 51.1 °F 48.9 °F 92% 30.11 in 0.2 mi South 3.5 mph - N/A Fog Fog
2:53 AM 51.1 °F 48.9 °F 92% 30.11 in 0.2 mi Calm Calm - N/A Fog Fog
3:53 AM 51.1 °F 48.9 °F 92% 30.11 in 0.2 mi Calm Calm - N/A Fog Fog
4:53 AM 52.0 °F 51.1 °F 97% 30.10 in 0.2 mi East 3.5 mph - N/A Fog Fog
5:53 AM 52.0 °F 50.0 °F 93% 30.11 in 0.5 mi SE 3.5 mph - N/A Fog Fog
6:53 AM 52.0 °F 50.0 °F 93% 30.11 in 0.2 mi SSE 3.5 mph - N/A Fog Fog
7:53 AM 53.1 °F 51.1 °F 93% 30.12 in 0.5 mi SE 4.6 mph - N/A Fog Fog
8:09 AM 53.1 °F 51.1 °F 93% 30.12 in 1.5 mi SSE 5.8 mph - N/A   Overcast
8:30 AM 54.0 °F 53.1 °F 97% 30.13 in 2.5 mi SSE 3.5 mph - N/A   Overcast
8:37 AM 54.0 °F 53.1 °F 97% 30.12 in 6.0 mi SSE 3.5 mph - N/A   Overcast
8:53 AM 55.9 °F 54.0 °F 93% 30.13 in 10.0 mi SSE 4.6 mph - N/A   Mostly Cloudy
9:00 AM 55.9 °F 54.0 °F 93% 30.13 in 10.0 mi SSE 5.8 mph - N/A   Mostly Cloudy
9:53 AM 61.0 °F 55.9 °F 83% 30.12 in 10.0 mi SSE 8.1 mph - N/A   Overcast
10:00 AM 62.1 °F 55.9 °F 80% 30.11 in 10.0 mi SSE 9.2 mph - N/A   Mostly Cloudy
10:39 AM 66.9 °F 55.0 °F 66% 30.11 in 10.0 mi SE 11.5 mph - N/A   Overcast
10:53 AM 66.9 °F 55.9 °F 68% 30.10 in 10.0 mi SSE 9.2 mph - N/A   Overcast
11:05 AM 66.9 °F 55.9 °F 68% 30.10 in 10.0 mi SSE 10.4 mph - N/A   Overcast
11:37 AM 69.1 °F 55.9 °F 63% 30.09 in 10.0 mi South 10.4 mph - 0.00 in   Overcast
11:53 AM 69.1 °F 55.9 °F 63% 30.07 in 10.0 mi SSE 11.5 mph - 0.00 in   Overcast
12:53 PM 72.0 °F 55.9 °F 57% 30.02 in 10.0 mi South 11.5 mph - N/A   Overcast
1:53 PM 73.0 °F 57.0 °F 57% 29.99 in 10.0 mi South 13.8 mph - N/A   Overcast
2:46 PM 73.9 °F 57.9 °F 57% 29.98 in 10.0 mi South 12.7 mph - N/A   Mostly Cloudy
2:53 PM 73.9 °F 59.0 °F 59% 29.98 in 10.0 mi South 17.3 mph 21.9 mph N/A   Mostly Cloudy
3:03 PM 73.9 °F 59.0 °F 59% 29.98 in 10.0 mi South 16.1 mph 25.3 mph N/A   Mostly Cloudy
3:53 PM 71.1 °F 60.1 °F 68% 29.99 in 10.0 mi South 13.8 mph - 0.00 in   Mostly Cloudy
4:53 PM 68.0 °F 60.1 °F 76% 30.01 in 10.0 mi South 13.8 mph - N/A   Overcast
5:30 PM 66.9 °F 59.0 °F 76% 30.00 in 10.0 mi South 15.0 mph - N/A   Overcast
5:53 PM 64.9 °F 59.0 °F 81% 29.99 in 10.0 mi SSE 13.8 mph - N/A   Mostly Cloudy
6:22 PM 64.9 °F 59.0 °F 81% 29.99 in 10.0 mi South 15.0 mph - N/A   Overcast
6:37 PM 64.0 °F 59.0 °F 84% 30.00 in 10.0 mi South 12.7 mph - N/A   Overcast
6:53 PM 64.0 °F 60.1 °F 87% 29.99 in 10.0 mi South 13.8 mph - N/A   Overcast
7:21 PM 64.0 °F 61.0 °F 90% 29.99 in 9.0 mi South 12.7 mph - N/A   Overcast
7:53 PM 63.0 °F 61.0 °F 93% 29.99 in 7.0 mi South 11.5 mph - N/A   Overcast
8:01 PM 63.0 °F 61.0 °F 93% 29.99 in 7.0 mi South 13.8 mph - N/A   Overcast
8:53 PM 63.0 °F 61.0 °F 93% 30.00 in 6.0 mi South 8.1 mph - N/A   Overcast
9:53 PM 64.0 °F 62.1 °F 93% 30.00 in 2.5 mi South 10.4 mph - N/A   Overcast
10:53 PM 64.9 °F 63.0 °F 93% 29.99 in 2.5 mi South 10.4 mph - N/A   Overcast
11:53 PM 64.9 °F 63.0 °F 93% 29.98 in 4.0 mi South 12.7 mph - N/A   Overcast